{"data":{"norad_id":43226,"intl_designator":"2018-022A","name":"GOES 17","alt_names":[],"object_type":"PAYLOAD","status":"ACTIVE","operator":null,"country":"US","launch_date":"2018-03-01","launch_site_code":"AFETR","launch_vehicle":null,"mission":null,"orbit_class":"UNKNOWN","rcs_meters":null,"size_class":null,"mass_kg":null,"dimensions":null,"purposes":["comms","earth_obs"],"wikipedia_slug":null,"has_3d_model":false,"image_url":null,"decayed_at":null,"tle_current":{"epoch":"2026-09-20T04:02:58.704864Z","epoch_age_seconds":43143,"freshness":"FRESH","line1":"1 43226U 18022A   26263.16873501 -.00000187  00000+0  00000+0 0  9995","line2":"2 43226   1.1748  84.1017 0000778 122.2527 123.9798  1.00273171 31379","mean_motion":1.00273171,"eccentricity":7.78e-5,"inclination_deg":1.1748,"raan_deg":84.1017,"arg_perigee_deg":122.2527,"mean_anomaly_deg":123.9798,"bstar":0,"rev_number":3137,"period_min":1436.077053951,"perigee_km":35782.926033635,"apogee_km":35789.486805471,"semimajor_km":42164.343419553,"source":"CELESTRAK","updated_at":"2026-09-20T09:00:35.258787Z"}}}